Stations météo

réclame
Mon MeteoGroup
Ajaccio, France (7761): Température de l'air & dewpoint: 11.01.2018 07:00:00 - 17.01.2018 07:00:00 (CET)Ajaccio, France (7761): Température de l'air 5cm: 11.01.2018 07:00:00 - 17.01.2018 07:00:00 (CET)Ajaccio, France (7761): Température de l'air -20cm & Température de l'air -100cm: 11.01.2018 07:00:00 - 17.01.2018 07:00:00 (CET)Ajaccio, France (7761): Vitesse du vent & gusts: 11.01.2018 07:00:00 - 17.01.2018 07:00:00 (CET)Ajaccio, France (7761): Direction du vent: 11.01.2018 07:00:00 - 17.01.2018 07:00:00 (CET)Ajaccio, France (7761): reduced air pressure: 11.01.2018 07:00:00 - 17.01.2018 07:00:00 (CET)Ajaccio, France (7761): visibility: 11.01.2018 07:00:00 - 17.01.2018 07:00:00 (CET)Ajaccio, France (7761): Ensoleillement: 11.01.2018 07:00:00 - 17.01.2018 07:00:00 (CET)Ajaccio, France (7761): Quantités de précipitations: 11.01.2018 07:00:00 - 17.01.2018 07:00:00 (CET)
Date & Time tt [°C] td [°C] tt 5cm [°C] tt -20cm [°C] tt -100cm [°C] ff [km/h] ff [knt] fx [km/h] fx [knt] dd ppp [hPa] vv [km] sd [min] rr [mm]
17.01.2018 07:00:00 14,4 8,3 11,8 11,0 12,6 18 10 36 19 W 1012,4 10 0 0,0
17.01.2018 06:00:00 14,5 10,3 11,6 11,0 12,7 22 12 45 24 W 1012,0 10 0 0,0
17.01.2018 05:00:00 13,4 10,6 9,4 11,0 12,7 16 9 27 15 WSW 1011,6 10 0 0,0
17.01.2018 04:00:00 11,6 10,3 9,6 11,0 12,6 0 0 11 6 N 1012,1 7 0 0,0
17.01.2018 03:00:00 11,4 9,8 9,4 11,0 12,7 8 4 11 6 SE 1013,5 10 0 0,0
17.01.2018 02:00:00 12,2 10,6 10,4 10,9 12,6 5 3 12 6 SE 1014,5 10 0 0,0
17.01.2018 01:00:00 12,8 10,7 10,6 11,0 12,7 5 3 20 11 S 1015,6 5 0 0,0
17.01.2018 00:00:00 13,7 10,7 11,4 10,9 12,7 13 7 30 16 WSW 1016,3 9 0 0,0
16.01.2018 23:00:00 13,7 10,9 11,6 10,9 12,7 22 12 35 19 W 1016,0 10 0 0,0
16.01.2018 22:00:00 13,8 10,6 12,3 10,8 12,7 21 11 35 19 WSW 1015,9 10 0 0,0
16.01.2018 21:00:00 13,9 10,5 12,3 10,8 12,7 18 10 31 17 WSW 1016,2 10 0 0,0
16.01.2018 20:00:00 13,8 11,0 12,9 10,7 12,7 21 11 32 18 SW 1016,3 10 0 0,0
16.01.2018 19:00:00 13,8 11,0 12,9 10,7 12,7 18 10 34 19 SW 1016,6 9 0 0,0
16.01.2018 18:00:00 14,0 11,3 13,0 10,6 12,7 21 11 33 18 SSW 1016,6 10 0 0,0
16.01.2018 17:00:00 14,1 11,3 13,2 10,6 12,7 22 12 35 19 SSW 1016,8 10 0 0,0
16.01.2018 16:00:00 14,3 10,3 13,4 10,5 12,7 21 11 31 17 SW 1017,2 9 0 0,0
16.01.2018 15:00:00 14,4 10,2 13,5 10,5 12,7 21 11 40 22 WSW 1017,5 10 0 0,0
16.01.2018 14:00:00 14,3 10,7 14,1 10,4 12,7 19 10 36 20 WSW 1017,9 7 0 0,0
16.01.2018 13:00:00 14,2 10,4 13,5 10,4 12,7 22 12 37 20 WSW 1018,6 10 0 0,0
16.01.2018 12:00:00 13,9 10,5 12,5 10,4 12,7 29 16 42 23 WSW 1019,3 10 0 0,0
16.01.2018 11:00:00 13,8 9,8 11,8 10,3 12,7 26 14 39 21 W 1019,8 10 0 0,0
16.01.2018 10:00:00 13,5 9,7 11,4 10,4 12,7 28 15 42 23 WSW 1019,6 10 0 0,0
16.01.2018 09:00:00 13,3 9,9 10,6 10,4 12,7 28 15 39 21 WSW 1019,3 10 0 0,0
16.01.2018 08:00:00 12,9 8,4 10,2 10,4 12,7 29 16 43 23 W 1019,1 10 0 0,0
16.01.2018 07:00:00 12,4 8,9 9,8 10,4 12,7 22 12 40 21 W 1019,3 10 0 0,0
16.01.2018 06:00:00 11,6 7,7 8,1 10,4 12,7 22 12 35 19 W 1019,3 10 0 0,0
16.01.2018 05:00:00 8,7 7,9 7,8 10,4 12,7 8 4 13 7 NNE 1019,8 10 0 0,2
16.01.2018 04:00:00 8,6 7,8 7,5 10,4 12,7 4 2 9 5 ENE 1020,9 4,5 0 0,4
16.01.2018 03:00:00 8,3 7,5 7,3 10,5 12,7 4 2 11 6 - 1021,5 10 0 0,0
16.01.2018 02:00:00 8,1 7,3 6,8 10,5 12,7 4 2 11 6 - 1021,6 10 0 0,4
16.01.2018 01:00:00 7,9 7,0 6,7 10,5 12,7 5 3 11 6 - 1022,2 10 0 0,0
16.01.2018 00:00:00 7,8 6,7 6,5 10,5 12,8 8 4 11 6 NNE 1022,5 10 0 0,0
15.01.2018 23:00:00 8,5 7,1 7,0 10,5 12,7 9 5 15 8 NE 1022,5 10 0 0,0
15.01.2018 22:00:00 8,5 7,1 7,1 10,5 12,8 9 5 15 8 NE 1021,9 10 0 0,0
15.01.2018 21:00:00 8,5 7,3 7,1 10,5 12,7 8 4 13 7 NE 1022,0 10 0 0,0
15.01.2018 20:00:00 9,1 7,5 7,8 10,4 12,7 8 4 14 8 NE 1021,7 10 0 0,0
15.01.2018 19:00:00 9,8 7,2 8,0 10,4 12,8 2 1 14 7 SE 1021,4 56 0 0,0
15.01.2018 18:00:00 10,1 7,7 8,5 10,3 12,8 8 4 15 8 ENE 1021,9 10 0 0,0
15.01.2018 17:00:00 10,9 8,3 8,8 10,3 12,8 5 3 10 6 - 1022,0 10 0 1,2
15.01.2018 16:00:00 11,8 6,5 10,4 10,2 12,8 6 3 18 10 E 1021,7 59 0 0,0
15.01.2018 15:00:00 12,9 7,3 12,3 10,2 12,8 9 5 17 9 E 1021,6 10 3 0,0
15.01.2018 14:00:00 10,6 7,3 9,9 10,1 12,8 2 1 21 11 ESE 1022,2 10 1 1,6
15.01.2018 13:00:00 12,1 8,4 10,3 10,1 12,8 15 8 22 12 WNW 1022,8 10 1 0,0
15.01.2018 12:00:00 13,7 7,0 13,8 10,1 12,8 13 7 17 9 NNE 1023,1 10 28 0,0
15.01.2018 11:00:00 10,5 5,5 8,9 10,2 12,8 8 4 13 7 NE 1023,5 10 0 0,0
15.01.2018 10:00:00 8,5 4,7 7,7 10,3 12,8 8 4 13 7 NE 1023,0 10 0 0,0
15.01.2018 09:00:00 7,4 3,8 6,5 10,3 12,8 8 4 19 10 NE 1022,7 10 2 0,0
15.01.2018 08:00:00 7,0 3,4 5,7 10,3 12,8 8 4 17 9 NE 1022,0 10 0 0,0
15.01.2018 07:00:00 6,9 3,3 5,7 10,4 12,8 11 6 17 9 NNE 1021,3 10 0 0,0
15.01.2018 06:00:00 6,8 3,4 5,7 10,4 12,8 13 7 21 11 NNE 1021,0 60 0 0,0
15.01.2018 05:00:00 7,1 3,3 5,8 10,5 12,8 11 6 17 9 NNE 1020,9 10 0 0,0
15.01.2018 04:00:00 7,0 3,1 5,7 10,6 12,8 10 6 19 10 NE 1021,1 60 0 0,0
15.01.2018 03:00:00 7,6 3,1 6,6 10,6 12,8 9 5 17 9 NE 1021,4 10 0 0,0
15.01.2018 02:00:00 7,4 3,6 6,7 10,6 12,8 13 7 18 10 NNE 1021,3 10 0 0,0
15.01.2018 01:00:00 7,1 3,5 6,1 10,6 12,8 11 6 20 11 NNE 1021,3 10 0 0,0
15.01.2018 00:00:00 7,0 3,6 5,1 10,7 12,8 9 5 19 10 NNE 1021,4 39 0 0,0
14.01.2018 23:00:00 6,1 3,9 4,9 10,7 12,8 15 8 19 10 NNE 1021,2 10 0 0,0
14.01.2018 22:00:00 7,2 4,2 5,0 10,7 12,8 8 4 18 10 NE 1021,1 10 0 0,0
14.01.2018 21:00:00 6,9 4,6 5,5 10,7 12,8 11 6 16 9 NE 1020,4 10 0 0,0
14.01.2018 20:00:00 8,2 5,3 7,1 10,7 12,8 9 5 13 7 NE 1020,0 10 0 0,0
14.01.2018 19:00:00 9,7 6,0 7,8 10,6 12,8 9 5 13 7 NE 1019,8 10 0 0,0
14.01.2018 18:00:00 11,3 6,0 8,9 10,5 12,8 5 3 8 4 - 1019,3 10 0 0,0
14.01.2018 17:00:00 12,7 5,1 11,5 10,5 12,8 5 3 8 5 - 1019,0 10 0 0,0
14.01.2018 16:00:00 13,1 4,8 12,4 10,4 12,8 4 2 10 5 NW 1018,6 58 25 0,0
14.01.2018 15:00:00 13,9 5,3 13,8 10,3 12,8 8 4 22 12 W 1018,4 10 23 0,0
14.01.2018 14:00:00 13,2 5,1 14,0 10,3 12,8 9 5 17 9 W 1018,6 10 0 0,0
14.01.2018 13:00:00 13,4 6,3 15,6 10,3 12,8 11 6 14 7 WSW 1018,6 10 37 0,0
14.01.2018 12:00:00 14,0 4,3 18,9 10,3 12,8 5 3 11 6 - 1019,1 10 60 0,0
14.01.2018 11:00:00 12,2 5,8 11,4 10,3 12,8 4 2 8 4 - 1019,8 10 56 0,0
14.01.2018 10:00:00 9,3 6,2 8,3 10,4 12,8 5 3 8 5 NE 1019,8 10 25 0,0
14.01.2018 09:00:00 8,1 5,0 5,5 10,4 12,9 5 3 15 8 NE 1019,3 10 29 0,0
14.01.2018 08:00:00 7,3 4,9 6,2 10,5 12,9 11 6 16 9 NNE 1018,9 10 0 0,0
14.01.2018 07:00:00 7,6 5,1 6,5 10,5 12,9 11 6 16 8 NNE 1018,8 10 0 0,0
14.01.2018 06:00:00 7,3 4,9 6,2 10,6 12,9 11 6 16 8 NNE 1018,6 10 0 0,0
14.01.2018 05:00:00 7,4 4,5 5,7 10,6 12,9 8 4 14 8 NE 1018,7 10 0 0,0
14.01.2018 04:00:00 6,6 4,4 5,4 10,7 12,9 9 5 19 10 NNE 1018,9 10 0 0,0
14.01.2018 03:00:00 6,1 4,3 5,1 10,7 12,9 12 6 19 11 NNE 1019,2 40 0 0,0
14.01.2018 02:00:00 6,5 4,5 4,9 10,7 12,9 9 5 19 11 NE 1019,3 10 0 0,0
14.01.2018 01:00:00 6,2 4,7 4,8 10,8 12,9 10 5 16 9 NE 1019,9 27 0 0,0
14.01.2018 00:00:00 6,7 5,2 5,5 10,8 12,9 11 6 14 8 NNE 1020,2 10 0 0,0
13.01.2018 23:00:00 7,7 6,3 6,3 10,8 12,9 11 6 19 10 NNE 1020,4 10 0 0,0
13.01.2018 22:00:00 7,8 6,9 6,7 10,8 12,9 9 5 13 7 NE 1020,3 10 0 0,0
13.01.2018 21:00:00 8,2 7,3 7,0 10,7 12,9 9 5 14 7 NNE 1020,2 9 0 0,0
13.01.2018 20:00:00 9,3 8,1 8,1 10,8 12,9 8 4 13 7 NE 1020,4 10 0 0,0
13.01.2018 19:00:00 10,1 8,0 8,6 10,7 12,9 5 3 17 9 - 1020,2 10 0 0,0
13.01.2018 18:00:00 10,4 8,0 8,8 10,7 12,9 9 5 15 8 E 1020,0 10 0 0,0
13.01.2018 17:00:00 11,2 8,2 10,3 10,6 12,9 4 2 6 4 ENE 1019,9 21 6 0,0
13.01.2018 16:00:00 11,1 8,7 10,5 10,6 12,9 4 2 5 3 - 1020,0 10 0 0,0
13.01.2018 15:00:00 10,7 8,6 10,4 10,6 12,9 5 3 8 5 SE 1020,1 10 0 0,0
13.01.2018 14:00:00 10,7 8,8 10,2 10,6 12,9 5 3 11 6 SSE 1020,0 10 0 0,2
13.01.2018 13:00:00 11,0 8,7 10,0 10,6 12,9 8 5 18 10 SSW 1020,4 5 1 1,0
13.01.2018 12:00:00 13,4 7,2 10,7 10,6 12,9 8 4 11 6 NNE 1020,8 10 15 0,0
13.01.2018 11:00:00 10,2 6,7 8,5 10,6 12,9 9 5 13 7 NE 1021,0 10 5 0,0
13.01.2018 10:00:00 8,5 5,4 7,7 10,7 12,9 5 3 14 8 NNE 1020,7 10 33 0,0
13.01.2018 09:00:00 6,8 4,8 4,0 10,7 12,9 5 3 13 7 ENE 1020,2 10 31 0,0
13.01.2018 08:00:00 6,4 4,4 4,8 10,7 12,9 4 2 13 7 - 1019,7 10 0 0,0
13.01.2018 07:00:00 7,3 5,1 5,9 10,7 12,9 9 5 14 8 NE 1019,5 10 0 0,0
13.01.2018 06:00:00 8,1 5,9 7,1 10,7 12,9 8 4 16 8 NE 1019,4 10 0 0,0
13.01.2018 05:00:00 7,8 6,4 7,1 10,8 12,9 9 5 17 9 NE 1019,3 10 0 0,0
13.01.2018 04:00:00 8,5 7,6 7,5 10,8 12,9 8 4 11 6 NNE 1019,6 10 0 0,2
13.01.2018 03:00:00 8,7 7,5 7,5 10,8 13,0 8 4 16 9 NE 1020,1 9 0 0,4
13.01.2018 02:00:00 9,0 7,4 7,5 10,8 12,9 8 4 12 7 ENE 1019,8 5 0 2,2
13.01.2018 01:00:00 8,9 6,0 7,9 10,9 13,0 8 4 11 6 ENE 1019,6 28 0 0,0
13.01.2018 00:00:00 8,9 5,8 8,2 10,8 12,9 9 5 17 9 NNE 1019,8 10 0 0,0
12.01.2018 23:00:00 8,8 6,1 8,1 10,9 13,0 9 5 14 7 NE 1019,7 25 0 0,0
12.01.2018 22:00:00 9,0 6,6 8,2 10,8 12,9 9 5 13 7 NNE 1019,2 10 0 0,0
12.01.2018 21:00:00 9,2 7,5 8,2 10,8 13,0 8 4 11 6 NE 1018,8 10 0 0,0
12.01.2018 20:00:00 10,0 8,1 8,7 10,8 12,9 8 4 9 5 NE 1018,3 10 0 0,0
12.01.2018 19:00:00 10,0 7,8 7,4 10,7 13,0 5 3 8 4 ENE 1017,7 10 0 0,0
12.01.2018 18:00:00 10,7 7,4 7,2 10,7 13,0 0 0 7 4 N 1016,8 10 4 0,0
12.01.2018 17:00:00 12,6 7,9 9,9 10,6 13,0 2 1 9 5 SW 1016,2 10 60 0,0
12.01.2018 16:00:00 13,8 8,2 13,2 10,5 13,0 5 3 11 6 S 1015,8 10 15 0,0
12.01.2018 15:00:00 13,6 8,4 14,8 10,4 13,0 9 5 15 8 SSW 1015,3 10 57 0,0
12.01.2018 14:00:00 14,1 9,3 16,4 10,4 13,0 11 6 17 9 SSW 1014,9 10 60 0,0
12.01.2018 13:00:00 13,4 7,6 17,2 10,4 13,0 11 6 14 8 SSW 1014,9 10 60 0,0
12.01.2018 12:00:00 12,2 7,5 16,9 10,5 13,0 5 3 8 5 WSW 1015,0 10 60 0,0
12.01.2018 11:00:00 10,7 7,4 11,2 10,5 13,0 5 3 10 5 WSW 1014,9 10 60 0,0
12.01.2018 10:00:00 7,8 6,6 5,4 10,6 13,0 8 4 20 11 NE 1014,4 10 28 0,0
12.01.2018 09:00:00 4,8 3,9 3,0 10,7 13,0 9 5 15 8 NNE 1013,7 10 6 0,0
12.01.2018 08:00:00 4,0 3,0 3,1 10,8 13,0 8 4 12 6 NE 1012,9 10 0 0,0
12.01.2018 07:00:00 3,9 3,0 3,1 10,9 13,0 9 5 17 9 NNE 1012,4 10 0 0,0
12.01.2018 06:00:00 4,3 3,6 2,6 11,0 13,0 11 6 16 9 NNE 1011,7 60 0 0,0
12.01.2018 05:00:00 3,8 2,9 2,6 11,1 13,0 9 5 16 9 NE 1011,7 10 0 0,0
12.01.2018 04:00:00 4,0 3,3 3,0 11,2 13,0 11 6 18 10 NE 1011,4 10 0 0,0
12.01.2018 03:00:00 4,6 3,7 3,3 11,2 13,0 9 5 19 11 NNE 1011,2 10 0 0,0
12.01.2018 02:00:00 4,3 3,4 3,5 11,3 13,0 11 6 18 10 NE 1010,9 41 0 0,0
12.01.2018 01:00:00 5,4 4,7 4,0 11,4 13,0 11 6 17 9 NNE 1010,7 10 0 0,0
12.01.2018 00:00:00 5,5 4,6 4,4 11,4 13,0 8 4 16 9 NE 1010,6 33 0 0,0
11.01.2018 23:00:00 5,8 4,9 4,4 11,4 13,0 11 6 15 8 NE 1010,4 10 0 0,0
11.01.2018 22:00:00 6,1 5,1 4,6 11,5 13,0 9 5 18 10 NE 1010,0 10 0 0,0
11.01.2018 21:00:00 6,6 5,5 5,4 11,5 13,0 8 4 14 7 NE 1009,7 10 0 0,0
11.01.2018 20:00:00 7,3 6,1 5,9 11,4 13,0 8 4 13 7 NNE 1009,6 10 0 0,0
11.01.2018 19:00:00 8,3 7,1 6,7 11,4 13,0 9 5 13 7 NE 1009,1 10 0 0,0
11.01.2018 18:00:00 9,2 7,8 8,0 11,4 13,0 9 5 14 7 NNE 1008,7 10 0 1,2
11.01.2018 17:00:00 9,7 8,1 8,6 11,3 13,0 11 6 20 11 NE 1009,0 10 0 0,2
11.01.2018 16:00:00 11,3 7,2 9,9 11,3 13,0 11 6 22 12 ENE 1008,6 10 0 0,0
11.01.2018 15:00:00 12,3 8,6 12,3 11,2 13,0 8 4 14 8 SE 1008,1 10 0 0,0
11.01.2018 14:00:00 12,5 8,2 13,5 11,2 13,0 8 4 10 6 SW 1008,0 10 0 0,0
11.01.2018 13:00:00 12,8 7,7 15,4 11,2 13,0 0 0 5 3 N 1008,3 52 0 0,0
11.01.2018 12:00:00 12,9 8,0 13,4 11,2 13,0 4 2 9 5 - 1009,1 10 39 0,0
11.01.2018 11:00:00 10,5 7,9 9,4 11,3 13,0 5 3 12 6 NE 1009,8 10 16 0,0
11.01.2018 10:00:00 8,5 7,0 8,1 11,3 13,0 8 4 14 8 NE 1010,0 10 9 0,0
11.01.2018 09:00:00 7,6 6,4 6,1 11,4 13,0 8 4 13 7 NE 1009,7 44 5 0,0
11.01.2018 08:00:00 7,2 6,0 6,0 11,4 13,0 8 4 13 7 NE 1009,9 10 0 0,0
11.01.2018 07:00:00 7,4 6,3 6,3 11,4 13,0 9 5 16 8 NNE 1010,0 10 0 0,0

tt = Température de l'air
td = dewpoint
tt 5cm = Température de l'air 5cm
tt -20cm = Température de l'air -20cm
tt -100cm = Température de l'air -100cm
ff = Vitesse du vent
fx = gusts
dd = Direction du vent
ppp = reduced air pressure
vv = visibility
sd = Ensoleillement
rr = Quantités de précipitations

stations d'obs. à proximité